IK5NLA Vaiano IT current weather conditions

sailwx.info

Wind from 360 at 1 knots

Air temperature 7.8° C
Dewpoint 1.6° C

Last reported at 2017-Feb-19 17:46 UTC.
Time now 2017-Feb-19 18:52 UTC

Location: N 43°58' E 011°06'.
View on Google Maps.

See reports from other nearby stations

  
Tides and Currents Weather Stations Pressure Air Temp Water Temp Dewpoint Dewpoint Depression Visibility Wind Speed Wind Dir Waves Ship Positions
date/time (UTC)wind fromknots sea level pressurealtimeterstation pressurevisibilityair tempwater tempwave heightnotes
2017-Feb-19 17:46 360 1 7.8
2017-Feb-19 17:36 291 6 8.3
2017-Feb-19 17:31 265 8 8.3
2017-Feb-19 17:26 281 8 8.3
2017-Feb-19 17:11 271 8 8.3
2017-Feb-19 17:06 279 6 8.3
2017-Feb-19 16:56 259 5 8.3
2017-Feb-19 16:46 269 4 8.3
2017-Feb-19 16:41 257 5 8.3
2017-Feb-19 16:31 273 5 8.9
2017-Feb-19 16:26 263 5 8.9
2017-Feb-19 16:21 268 5 8.9
2017-Feb-19 16:16 237 4 8.9
2017-Feb-19 16:02 245 4 8.9
2017-Feb-19 15:56 257 3 8.9
2017-Feb-19 15:51 244 5 8.9
2017-Feb-19 15:46 218 5 8.9
2017-Feb-19 15:36 269 4 9.4
2017-Feb-19 15:31 232 4 9.4
2017-Feb-19 15:26 248 5 9.4
2017-Feb-19 15:21 229 6 9.4
2017-Feb-19 15:16 256 4 9.4
2017-Feb-19 15:11 230 5 10.0
2017-Feb-19 15:06 238 6 9.4
2017-Feb-19 15:01 252 5 10.0
2017-Feb-19 14:56 234 4 10.0
2017-Feb-19 14:51 247 4 10.0
2017-Feb-19 14:41 247 5 10.0
2017-Feb-19 14:36 227 5 10.0
2017-Feb-19 14:31 211 6 9.4
2017-Feb-19 14:21 360 6 10.0
2017-Feb-19 14:16 223 5 10.0
2017-Feb-19 14:11 205 4 10.0
2017-Feb-19 14:06 266 6 9.4
2017-Feb-19 13:51 159 5 10.0
2017-Feb-19 13:31 182 4 10.0
2017-Feb-19 13:16 232 4 10.0
2017-Feb-19 13:01 179 4 10.0
2017-Feb-19 12:56 254 5 9.4
2017-Feb-19 12:51 175 5 9.4
2017-Feb-19 12:41 242 6 9.4
2017-Feb-19 12:36 246 6 9.4
2017-Feb-19 12:31 185 5 9.4
2017-Feb-19 12:26 360 5 9.4
2017-Feb-19 12:16 218 5 9.4
2017-Feb-19 12:11 244 6 9.4
2017-Feb-19 12:07 247 6 8.9
2017-Feb-19 12:01 219 6 8.9
2017-Feb-19 11:51 183 6 9.4
2017-Feb-19 11:46 242 6 8.9
2017-Feb-19 11:41 182 6 9.4
2017-Feb-19 11:36 219 6 8.9
2017-Feb-19 11:26 217 5 9.4
2017-Feb-19 11:21 225 5 9.4
2017-Feb-19 11:16 225 6 8.9
2017-Feb-19 11:11 235 6 8.9
2017-Feb-19 11:06 241 5 8.9
2017-Feb-19 11:01 230 4 8.9
2017-Feb-19 10:56 236 4 8.9
2017-Feb-19 10:51 227 3 8.9
2017-Feb-19 10:46 219 2 9.4
2017-Feb-19 10:41 360 3 9.4
2017-Feb-19 10:36 204 2 9.4
2017-Feb-19 10:31 162 1 9.4
2017-Feb-19 10:21 187 2 9.4
2017-Feb-19 10:11 180 2 9.4
2017-Feb-19 10:06 137 1 9.4
2017-Feb-19 09:51 119 0 8.9
2017-Feb-19 09:46 137 1 8.9
2017-Feb-19 09:36 171 0 9.4
2017-Feb-19 09:31 218 0 8.9
2017-Feb-19 09:26 220 0 9.4
2017-Feb-19 09:16 087 0 9.4
2017-Feb-19 09:11 134 1 8.9
2017-Feb-19 08:51 142 0 8.9
2017-Feb-19 08:46 123 0 8.9
2017-Feb-19 08:41 119 0 8.3
2017-Feb-19 08:36 105 0 8.3
2017-Feb-19 08:31 117 0 8.3
2017-Feb-19 08:26 125 0 8.3
2017-Feb-19 08:16 112 0 7.8
2017-Feb-19 08:11 118 0 7.8
2017-Feb-19 08:06 110 0 7.8
2017-Feb-19 08:01 120 0 7.2
2017-Feb-19 07:51 119 7.8
2017-Feb-19 07:46 118 0 7.2
2017-Feb-19 07:41 109 1 7.2
2017-Feb-19 07:31 096 0 7.8
2017-Feb-19 07:16 071 1 7.2
2017-Feb-19 07:11 069 1 7.2
2017-Feb-19 07:01 053 1 7.2
2017-Feb-19 06:56 019 0 6.7
2017-Feb-19 06:51 045 0 6.7
2017-Feb-19 06:46 342 1 6.1
2017-Feb-19 06:41 335 2 6.1
2017-Feb-19 06:31 360 2 5.6
2017-Feb-19 06:26 315 2 5.6
2017-Feb-19 06:21 340 3 5.6
2017-Feb-19 06:11 326 3 5.6
2017-Feb-19 06:06 355 3 5.6
2017-Feb-19 06:01 341 3 5.6
2017-Feb-19 05:41 342 3 5.0
2017-Feb-19 05:31 333 3 5.0
2017-Feb-19 05:26 355 3 5.0
2017-Feb-19 05:16 336 3 5.6
2017-Feb-19 05:11 344 3 5.6
2017-Feb-19 05:06 345 3 5.6
2017-Feb-19 05:01 344 3 5.6
2017-Feb-19 04:56 343 3 5.6
2017-Feb-19 04:51 340 3 5.6
2017-Feb-19 04:41 338 3 5.6
2017-Feb-19 04:36 345 3 5.6
2017-Feb-19 04:31 009 2 5.6
2017-Feb-19 04:26 360 2 5.6
2017-Feb-19 04:21 341 2 6.1
2017-Feb-19 04:16 344 2 6.1
2017-Feb-19 04:11 360 3 6.1
2017-Feb-19 04:06 360 4 5.6
2017-Feb-19 03:56 336 3 5.6
2017-Feb-19 03:51 005 3 5.6
2017-Feb-19 03:31 014 4 5.6
2017-Feb-19 03:26 019 3 5.6
2017-Feb-19 03:21 018 3 6.1
2017-Feb-19 03:11 015 4 6.1
2017-Feb-19 03:06 019 3 6.1
2017-Feb-19 03:01 341 3 5.6
2017-Feb-19 02:56 023 4 6.1
2017-Feb-19 02:51 013 4 6.1
2017-Feb-19 02:46 342 4 6.1
2017-Feb-19 02:36 005 3 5.6
2017-Feb-19 02:31 355 3 5.6
2017-Feb-19 02:26 017 3 5.6
2017-Feb-19 02:16 349 3 6.1
2017-Feb-19 01:56 360 3 6.1
2017-Feb-19 01:51 019 3 6.1
2017-Feb-19 01:46 030 3 6.1
2017-Feb-19 01:41 020 3 6.1
2017-Feb-19 01:36 005 2 6.1
2017-Feb-19 01:31 015 3 6.1
2017-Feb-19 01:26 017 3 6.1
2017-Feb-19 01:21 022 3 6.1
2017-Feb-19 01:11 345 3 6.1
2017-Feb-19 00:56 028 4 6.1
2017-Feb-19 00:51 013 3 6.1
2017-Feb-19 00:36 021 4 6.1
2017-Feb-19 00:31 013 5 6.1
2017-Feb-19 00:21 045 6 6.7
2017-Feb-19 00:16 014 5 6.7
2017-Feb-18 23:51 027 4 6.7
2017-Feb-18 23:41 018 3 6.7
2017-Feb-18 23:36 049 4 6.7
2017-Feb-18 23:26 012 3 6.7
2017-Feb-18 23:16 041 3 6.7
2017-Feb-18 23:11 024 3 6.7
2017-Feb-18 23:06 005 3 6.7
2017-Feb-18 23:01 042 3 6.7
2017-Feb-18 22:36 019 2 7.2
2017-Feb-18 22:16 032 3 7.2
2017-Feb-18 22:06 015 3 7.2
2017-Feb-18 21:56 017 3 7.2
2017-Feb-18 21:51 048 3 7.2
2017-Feb-18 21:31 029 2 7.2
2017-Feb-18 21:26 342 3 7.2
2017-Feb-18 21:11 350 3 7.2
2017-Feb-18 20:51 017 2 7.2
2017-Feb-18 20:41 360 1 6.7
2017-Feb-18 20:36 009 1 6.7
2017-Feb-18 20:26 344 2 6.7
2017-Feb-18 20:21 350 2 6.7
2017-Feb-18 20:16 005 1 6.7
2017-Feb-18 20:11 355 1 6.7
2017-Feb-18 20:06 360 0 6.7
2017-Feb-18 20:01 026 0 6.7
2017-Feb-18 19:46 037 0 7.2
2017-Feb-18 19:41 355 0 7.2
2017-Feb-18 19:21 011 0 7.2
2017-Feb-18 19:16 015 0 7.2
2017-Feb-18 19:11 035 0 7.2
2017-Feb-18 19:06 025 0 7.2
2017-Feb-18 18:56 032 1 7.2
2017-Feb-18 18:51 009 1 7.2
2017-Feb-18 18:31 012 2 7.8
2017-Feb-18 18:11 026 2 7.8
2017-Feb-18 18:06 015 2 7.8
2017-Feb-18 17:51 005 3 8.3
2017-Feb-18 17:46 060 3 8.3
2017-Feb-18 17:41 030 3 8.3
2017-Feb-18 17:36 011 3 8.3
2017-Feb-18 17:21 020 3 8.9
2017-Feb-18 17:11 037 3 8.9
2017-Feb-18 17:01 022 3 8.9
2017-Feb-18 16:51 067 1 8.9
2017-Feb-18 16:46 069 0 8.9
2017-Feb-18 16:36 043 3 9.4
2017-Feb-18 16:27 073 2 9.4
2017-Feb-18 16:21 072 2 9.4
2017-Feb-18 16:11 081 2 9.4
2017-Feb-18 16:06 073 2 9.4
2017-Feb-18 15:56 069 2 9.4
2017-Feb-18 15:51 072 2 10.0
2017-Feb-18 15:46 072 3 10.0
2017-Feb-18 15:41 077 3 10.0
2017-Feb-18 15:36 063 2 10.0
2017-Feb-18 15:31 025 4 10.0
2017-Feb-18 15:26 132 4 10.0
2017-Feb-18 15:21 126 3 10.6
2017-Feb-18 15:16 073 2 10.6
2017-Feb-18 15:11 079 2 10.6
2017-Feb-18 15:06 080 3 10.6
2017-Feb-18 15:01 065 3 10.6
2017-Feb-18 14:56 060 3 11.1
2017-Feb-18 14:51 083 5 10.6
2017-Feb-18 14:46 082 4 10.6
2017-Feb-18 14:41 080 3 10.6
2017-Feb-18 14:36 076 3 10.6
2017-Feb-18 14:31 098 3 10.6
2017-Feb-18 14:21 079 5 10.6
2017-Feb-18 14:11 092 5 11.1
2017-Feb-18 14:06 065 3 11.1
2017-Feb-18 14:01 119 3 11.1
2017-Feb-18 13:56 106 4 11.1
2017-Feb-18 13:51 092 4 11.1
2017-Feb-18 13:46 065 5 11.1
2017-Feb-18 13:31 111 4 11.1
2017-Feb-18 13:26 071 5 11.1
2017-Feb-18 13:21 101 5 11.1
2017-Feb-18 13:16 098 4 11.1
2017-Feb-18 13:11 110 4 11.1
2017-Feb-18 12:56 119 4 11.1
2017-Feb-18 12:46 094 4 10.6
2017-Feb-18 12:41 084 3 11.1
2017-Feb-18 12:31 105 5 10.6
2017-Feb-18 12:16 109 3 10.6
2017-Feb-18 11:51 088 4 10.6
2017-Feb-18 11:36 057 4 10.0
2017-Feb-18 11:31 077 5 10.0
2017-Feb-18 11:26 105 5 10.0
2017-Feb-18 11:21 121 6 10.0
2017-Feb-18 11:11 090 5 10.0
2017-Feb-18 11:01 106 5 9.4
2017-Feb-18 10:56 063 4 9.4
2017-Feb-18 10:46 080 5 9.4
2017-Feb-18 10:26 070 4 8.9
2017-Feb-18 10:06 107 3 8.9
2017-Feb-18 09:41 071 5 8.3
2017-Feb-18 09:31 076 6 7.8
2017-Feb-18 09:26 045 5 7.8
2017-Feb-18 09:21 047 4 7.8
2017-Feb-18 09:16 080 6 7.8
2017-Feb-18 09:06 103 4 8.3
2017-Feb-18 09:01 079 4 7.8
2017-Feb-18 08:41 069 5 7.8
2017-Feb-18 08:26 046 6 7.2
2017-Feb-18 08:11 057 6 7.2
2017-Feb-18 08:01 052 5 7.8
2017-Feb-18 07:46 025 4 7.2
2017-Feb-18 07:41 053 5 7.2
2017-Feb-18 07:36 360 5 7.2
2017-Feb-18 07:31 029 4 7.2
2017-Feb-18 07:16 086 4 6.7
2017-Feb-18 07:01 355 4 6.1
2017-Feb-18 06:56 076 4 6.1
2017-Feb-18 06:36 042 4 5.6
2017-Feb-18 06:26 067 5 5.6
2017-Feb-18 06:16 061 2 5.6
2017-Feb-18 06:11 053 3 5.6
2017-Feb-18 05:51 024 3 5.6
2017-Feb-18 05:31 052 3 5.6
2017-Feb-18 05:21 046 2 5.6
2017-Feb-18 05:06 063 3 5.6
2017-Feb-18 05:01 027 3 6.1
2017-Feb-18 04:56 051 3 6.1
2017-Feb-18 04:46 030 4 6.1
2017-Feb-18 04:36 070 2 6.1
2017-Feb-18 04:26 100 2 6.1
2017-Feb-18 04:06 084 4 6.7
2017-Feb-18 04:01 024 3 6.7
2017-Feb-18 03:56 042 4 6.7
2017-Feb-18 03:51 034 4 6.7
2017-Feb-18 03:36 024 4 7.2
2017-Feb-18 03:31 025 4 7.2
2017-Feb-18 03:26 051 3 6.7
2017-Feb-18 03:21 033 3 6.7
2017-Feb-18 03:16 027 4 6.7
2017-Feb-18 03:11 028 3 6.7
2017-Feb-18 03:06 062 2 6.7
2017-Feb-18 03:01 063 1 6.7
2017-Feb-18 02:56 061 1 6.7
2017-Feb-18 02:31 009 1 6.7
2017-Feb-18 02:26 019 6.7
2017-Feb-18 02:21 025 6.7
2017-Feb-18 02:16 040 1 6.7
2017-Feb-18 01:51 034 0 7.2
2017-Feb-18 01:41 052 0 7.2
2017-Feb-18 01:31 331 7.2
2017-Feb-18 01:26 015 7.2
2017-Feb-18 01:11 335 0 7.2
2017-Feb-18 01:06 005 7.2
2017-Feb-18 01:01 021 7.2
2017-Feb-18 00:51 021 7.2
2017-Feb-18 00:26 021 7.2
2017-Feb-18 00:11 017 7.2
2017-Feb-18 00:06 016 0 7.2
2017-Feb-18 00:01 015 0 7.2
2017-Feb-17 23:56 342 7.2
2017-Feb-17 23:36 245 7.8
2017-Feb-17 23:31 242 7.8
2017-Feb-17 23:26 242 7.8
2017-Feb-17 23:16 242 7.8
2017-Feb-17 23:06 232 7.8
2017-Feb-17 23:01 232 7.8
2017-Feb-17 22:56 232 7.8
2017-Feb-17 22:46 215 7.8
2017-Feb-17 22:41 240 1 7.8
2017-Feb-17 22:31 247 1 7.2
2017-Feb-17 22:26 252 0 7.2
2017-Feb-17 22:21 238 7.8
2017-Feb-17 22:11 210 7.8
2017-Feb-17 22:01 211 0 7.8
2017-Feb-17 21:56 360 0 7.8
2017-Feb-17 21:51 244 0 7.8
2017-Feb-17 21:46 360 0 7.8
2017-Feb-17 21:41 360 0 7.8
2017-Feb-17 21:36 199 0 7.8
2017-Feb-17 21:31 199 2 7.8
2017-Feb-17 21:26 191 3 7.8
2017-Feb-17 21:21 248 2 7.8
2017-Feb-17 21:06 053 7.8
2017-Feb-17 21:01 079 7.8
2017-Feb-17 20:56 117 7.8
2017-Feb-17 20:51 118 7.8
2017-Feb-17 20:46 217 0 7.8
2017-Feb-17 20:36 191 0 7.8
2017-Feb-17 20:26 200 8.3
2017-Feb-17 20:21 200 8.3
2017-Feb-17 20:16 198 8.3
2017-Feb-17 19:51 179 3 8.3
2017-Feb-17 19:46 271 2 8.3
2017-Feb-17 19:36 123 4 8.3
2017-Feb-17 19:31 180 4 8.3
2017-Feb-17 19:26 238 4 8.3
2017-Feb-17 19:21 225 1 8.3
2017-Feb-17 19:06 210 2 8.3
2017-Feb-17 18:41 157 3 8.3
2017-Feb-17 18:36 126 4 8.3
2017-Feb-17 18:26 168 5 8.3
2017-Feb-17 18:21 242 7 8.3
2017-Feb-17 18:16 273 9 8.3
2017-Feb-17 18:11 222 8 8.3
2017-Feb-17 18:01 233 7 8.3